Orr, MN

10:11 AM CDT on June 26, 2017 (GMT -0500)
Orr Regional

Weather History for KORB - March, 2013

Change the Weather History Date:

Saturday, March 9, 2013

  Actual Average Record
Temperature  
Mean Temperature 29 °F -  
Max Temperature 32 °F 25 °F 50 °F (2015)
Min Temperature 26 °F 5 °F -16 °F (2003)
Degree Days  
Heating Degree Days 36    
Moisture  
Dew Point 27 °F    
Average Humidity 91    
Maximum Humidity 100    
Minimum Humidity 80    
Precipitation  
Precipitation 0.28 in - - ()
Sea Level Pressure  
Sea Level Pressure 29.84 in    
Wind  
Wind Speed 2 mph (ESE)    
Max Wind Speed 7 mph    
Max Gust Speed -    
Visibility 3 miles    
Events Rain , Snow    
Averages and records for this station are not official NWS values.
T = Trace of Precipitation, MM = Missing Value Source: NWS Daily Summary

Daily Weather History Graph

Daily Weather History Graph

Search for Another Location

Airport or City:

Trip Planner

Search our weather history database for the weather conditions in past years. The results will help you decide how hot, cold, wet, or windy it might be!

Date:

Astronomy

Mar. 09, 2013 Rise Set
Actual Time 6:36 AM CST 6:08 PM CST
Civil Twilight 6:05 AM CST 6:39 PM CST
Nautical Twilight 5:29 AM CST 7:15 PM CST
Astronomical Twilight 4:52 AM CST 7:51 PM CST
Moon 5:08 AM CST (3/9) 4:05 PM CST (3/9)
Length of Visible Light 12h 34m
Length of Day
11h 32m
Waning Crescent, 5% of the Moon is Illuminated
Mar 9
Waning Crescent
Mar 11
New
Mar 19
First Quarter
Mar 27
Full
Apr 2
Last Quarter

Hourly Weather History & Observations

Time (CST) Temp. Windchill Dew Point Humidity Pressure Visibility Wind Dir Wind Speed Gust Speed Precip Events Conditions
12:13 AM 26.6 °F - 21.2 °F 80% 30.06 in 7.0 mi Calm Calm - N/A   Clear
12:33 AM 26.6 °F - 21.2 °F 80% 30.06 in 7.0 mi Calm Calm - N/A   Clear
12:53 AM 26.6 °F - 21.2 °F 80% 30.06 in 7.0 mi Calm Calm - N/A   Clear
1:13 AM 26.6 °F - 21.2 °F 80% 30.05 in 7.0 mi Calm Calm - N/A   Clear
1:33 AM 26.6 °F - 23.0 °F 86% 30.04 in 7.0 mi Calm Calm - N/A   Clear
1:53 AM 26.6 °F - 21.2 °F 80% 30.04 in 7.0 mi Calm Calm - N/A   Clear
2:13 AM 26.6 °F - 21.2 °F 80% 30.03 in 7.0 mi Calm Calm - N/A   Clear
2:33 AM 26.6 °F - 23.0 °F 86% 30.02 in 7.0 mi Calm Calm - N/A   Clear
2:53 AM 26.6 °F 22.6 °F 23.0 °F 86% 30.01 in 5.0 mi ESE 3.5 mph - N/A Snow Light Snow
3:13 AM 26.6 °F 22.6 °F 24.8 °F 93% 30.00 in 2.0 mi East 3.5 mph - N/A Snow Snow
3:33 AM 26.6 °F - 24.8 °F 93% 29.99 in 1.5 mi Calm Calm - 0.01 in   Mostly Cloudy
3:53 AM 26.6 °F - 24.8 °F 93% 29.99 in 1.0 mi Calm Calm - 0.02 in Snow Snow
4:13 AM 26.6 °F 22.6 °F 24.8 °F 93% 29.97 in 1.5 mi ESE 3.5 mph - N/A Snow Snow
4:33 AM 26.6 °F - 24.8 °F 93% 29.97 in 1.2 mi Calm Calm - 0.01 in Snow Snow
4:53 AM 26.6 °F - 24.8 °F 93% 29.96 in 1.2 mi Calm Calm - 0.02 in   Unknown
5:14 AM 26.6 °F - 24.8 °F 93% 29.95 in 1.8 mi Calm Calm - N/A Snow Light Snow
5:33 AM - - 26.6 °F N/A% 29.93 in 2.5 mi East 3.5 mph - N/A   Unknown
5:53 AM 28.4 °F 22.2 °F 26.6 °F 93% 29.93 in 5.0 mi ESE 5.8 mph - 0.01 in   Clear
6:12 AM 28.4 °F 23.3 °F 24.8 °F 86% 29.93 in 4.0 mi ESE 4.6 mph - 0.02 in Snow Light Snow
6:33 AM 28.4 °F 24.6 °F 24.8 °F 86% 29.93 in 2.5 mi East 3.5 mph - 0.03 in   Unknown
6:53 AM 28.4 °F - 24.8 °F 86% 29.92 in 1.8 mi Calm Calm - 0.04 in Snow Light Snow
7:13 AM 28.4 °F - 24.8 °F 86% 29.92 in 1.2 mi Calm Calm - N/A   Unknown
7:34 AM 28.4 °F - 24.8 °F 86% 29.91 in 1.0 mi Calm Calm - 0.01 in   Mostly Cloudy
7:53 AM 28.4 °F - 26.6 °F 93% 29.91 in 1.2 mi Calm Calm - 0.02 in   Overcast
8:13 AM 28.4 °F 23.3 °F 26.6 °F 93% 29.90 in 1.2 mi ESE 4.6 mph - 0.01 in   Overcast
8:34 AM 28.4 °F 24.6 °F 26.6 °F 93% 29.89 in 1.5 mi ESE 3.5 mph - 0.02 in   Mostly Cloudy
8:53 AM 28.4 °F 22.2 °F 26.6 °F 93% 29.87 in 1.0 mi ESE 5.8 mph - 0.03 in Snow Light Snow
9:13 AM 28.4 °F 23.3 °F 26.6 °F 93% 29.86 in 1.0 mi ESE 4.6 mph - N/A Snow Light Snow
9:33 AM 30.2 °F 24.3 °F 26.6 °F 86% 29.85 in 1.2 mi ESE 5.8 mph - N/A Snow Snow
9:53 AM 30.2 °F 26.7 °F 26.6 °F 86% 29.85 in 1.0 mi ESE 3.5 mph - 0.01 in Snow Light Snow
10:13 AM 30.2 °F 25.4 °F 26.6 °F 86% 29.83 in 1.0 mi ESE 4.6 mph - 0.01 in Snow Light Snow
10:33 AM 30.2 °F 23.4 °F 26.6 °F 86% 29.82 in 1.5 mi ESE 6.9 mph - 0.01 in Snow Light Snow
10:53 AM 30.2 °F - 28.4 °F 93% 29.82 in 2.0 mi Calm Calm - 0.01 in Snow Light Snow
11:13 AM 30.2 °F 24.3 °F 28.4 °F 93% 29.80 in 2.5 mi ESE 5.8 mph - N/A Snow Light Snow
11:33 AM 32.0 °F 27.5 °F 28.4 °F 87% 29.80 in 3.0 mi ESE 4.6 mph - N/A Snow Light Snow
11:53 AM 30.2 °F 25.4 °F 28.4 °F 93% 29.80 in 3.0 mi SE 4.6 mph - N/A   Scattered Clouds
12:13 PM 32.0 °F 25.6 °F 28.4 °F 87% 29.80 in 1.5 mi SE 6.9 mph - N/A Snow Light Snow
12:33 PM 32.0 °F 28.7 °F 28.4 °F 87% 29.79 in 2.5 mi SE 3.5 mph - 0.01 in Snow Light Snow
12:54 PM 32.0 °F 26.4 °F 28.4 °F 87% 29.78 in 3.0 mi SE 5.8 mph - 0.01 in Snow Light Snow
1:13 PM 32.0 °F 27.5 °F 28.4 °F 87% 29.77 in 4.0 mi SE 4.6 mph - N/A Snow Light Snow
1:33 PM 32.0 °F - 28.4 °F 87% 29.76 in 2.5 mi Calm Calm - N/A   Scattered Clouds
1:53 PM 32.0 °F - 30.2 °F 93% 29.75 in 3.0 mi Calm Calm - N/A   Scattered Clouds
2:13 PM 32.0 °F 28.7 °F 30.2 °F 93% 29.75 in 3.0 mi SE 3.5 mph - N/A   Scattered Clouds
2:33 PM 32.0 °F - 30.2 °F 93% 29.74 in 4.0 mi Calm Calm - N/A   Scattered Clouds
2:53 PM 32.0 °F - 30.2 °F 93% 29.74 in 4.0 mi Calm Calm - N/A Snow Light Snow
3:13 PM 32.0 °F - 30.2 °F 93% 29.74 in 2.0 mi Calm Calm - N/A   Mostly Cloudy
3:33 PM 32.0 °F - 30.2 °F 93% 29.74 in 1.5 mi Calm Calm - N/A   Overcast
3:53 PM 32.0 °F - 30.2 °F 93% 29.73 in 1.2 mi Calm Calm - N/A   Overcast
4:13 PM 32.0 °F - 30.2 °F 93% 29.73 in 1.8 mi Calm Calm - 0.01 in   Mostly Cloudy
4:33 PM 32.0 °F - 30.2 °F 93% 29.72 in 1.5 mi Calm Calm - 0.01 in Rain Rain
4:53 PM 32.0 °F - 30.2 °F 93% 29.71 in 1.5 mi Calm Calm - 0.02 in Rain Rain
5:13 PM 32.0 °F - 30.2 °F 93% 29.71 in 1.5 mi Calm Calm - N/A   Mostly Cloudy
5:33 PM 32.0 °F - 30.2 °F 93% 29.72 in 1.2 mi Calm Calm - 0.01 in   Unknown
5:53 PM 32.0 °F - 30.2 °F 93% 29.73 in 1.0 mi Calm Calm - 0.01 in Rain Rain
6:13 PM 32.0 °F - 30.2 °F 93% 29.74 in 0.8 mi Calm Calm - 0.02 in Snow Snow
6:34 PM 32.0 °F - 30.2 °F 93% 29.74 in 1.2 mi Calm Calm - 0.03 in   Overcast
6:53 PM 32.0 °F - 30.2 °F 93% 29.74 in 1.2 mi Calm Calm - 0.06 in   Overcast
7:14 PM 32.0 °F - 30.2 °F 93% 29.74 in 1.5 mi Calm Calm - 0.02 in   Overcast
7:34 PM 30.2 °F - 30.2 °F 100% 29.74 in 1.5 mi Calm Calm - 0.02 in   Overcast
7:54 PM 30.2 °F - 30.2 °F 100% 29.75 in 1.5 mi Calm Calm - 0.02 in   Overcast
8:14 PM 30.2 °F - 30.2 °F 100% 29.74 in 2.0 mi Calm Calm - N/A   Overcast
8:33 PM 30.2 °F - 30.2 °F 100% 29.75 in 2.0 mi Calm Calm - N/A Snow Light Snow
8:53 PM 30.2 °F - 30.2 °F 100% 29.75 in 2.5 mi Calm Calm - N/A Snow Light Snow
9:13 PM 30.2 °F 26.7 °F 30.2 °F 100% 29.75 in 3.0 mi NW 3.5 mph - N/A Snow Light Snow
9:33 PM 30.2 °F 26.7 °F 30.2 °F 100% 29.75 in 2.0 mi NW 3.5 mph - N/A Snow Light Snow
9:53 PM 30.2 °F 24.3 °F 28.4 °F 93% 29.75 in 3.0 mi NW 5.8 mph - N/A Snow Light Snow
10:13 PM 30.2 °F 26.7 °F 28.4 °F 93% 29.75 in 5.0 mi NW 3.5 mph - N/A Snow Light Snow
10:34 PM 30.2 °F 26.7 °F 28.4 °F 93% 29.75 in 7.0 mi NW 3.5 mph - N/A   Overcast
10:53 PM 30.2 °F 26.7 °F 28.4 °F 93% 29.76 in 10.0 mi NW 3.5 mph - N/A   Overcast
11:13 PM 30.2 °F 26.7 °F 28.4 °F 93% 29.77 in 10.0 mi NW 3.5 mph - N/A   Overcast
11:33 PM 30.2 °F 24.3 °F 26.6 °F 86% 29.77 in 10.0 mi NW 5.8 mph - N/A   Overcast
11:53 PM 30.2 °F 25.4 °F 26.6 °F 86% 29.77 in 10.0 mi NW 4.6 mph - N/A   Overcast